sat.trackr.live / text

‹ back to catalog

STARLINK-35677

NORAD 66220 · 2025-244Q

PAYLOAD ACTIVE UNKNOWN

§ Identity

Operator
Country
US
Launch date
2025-10-28
Launch site
AFWTR
Launch vehicle
Mass (kg)
RCS (m²)

Purposes: comms

External: N2YO · Heavens-Above · Gunter

§ Orbital elements

Epoch: 2026-09-20T13:05:59.154720Z

Period
93.85 min
Inclination
53.1583°
Eccentricity
0.0000932
Mean motion
15.34410293 rev/d
Perigee alt
462.0 km
Apogee alt
463.3 km
Semi-major
6,840.8 km
B*
7.5431e-4
RAAN
41.2216°
Arg perigee
108.7248°
Mean anomaly
251.3855°
Rev number
5,154

§ Raw data

STARLINK-356771 66220U 25244Q   26263.54582355  .00025203  00000+0  75431-3 0  99932 66220  53.1583  41.2216 0000932 108.7248 251.3855 15.34410293 51549

JSON: /api/v1/satellites/66220 · /tle

For live sub-satellite position, see the globe view (requires WebGL).

§ Visibility from observer

Set your observer location to see the next 7 days of passes ≥ 10°. The values pass through the URL so the page stays shareable.

No JS? Fill the form by hand. The geolocation button needs JavaScript.